Flag for U.S.A. Weather past 2 weeks in Bozeman, Montana, U.S.A.

Now
72 °F

Sunny.


Feels Like: 76 °F
Forecast: 41 / 63 °F
Wind: 9 mph from Southwest

Location: Gallatin Field

Current Time: Sep 2, 2014 at 8:38:40 PM

Latest Report: Sep 2, 2014 at 7:56 PM


Visibility: 10 mi

Pressure: 29.64 "Hg

Humidity: 26%

Dew point: 35 °F

Location of BozemanLocation

Historic Weather in Bozeman — Graph

°F

Bozeman temperature yesterday

Maximum temperature yesterday: 69 °F (at 4:56 PM)
Minimum temperature yesterday: 46 °F (at 10:56 PM)
Average temperature yesterday: 57 °F

Past Weeks' High & Low Weather Summary

 TemperatureHumidityPressure
High84 °F (Aug 19, 12:56 PM)97% (Aug 22, 2:56 AM)30.19 "Hg (Aug 22, 2:56 AM)
Low38 °F (Aug 25, 6:56 AM)19% (Aug 19, 12:56 PM)29.65 "Hg (Sep 2, 6:56 PM)
Average59 °F67%29.96 "Hg
* Reported Aug 18 6:56 PM — Sep 2 6:56 PM, Bozeman, Weather by CustomWeather, © 2014

Note: Actual official high and low records may vary slightly from our data, if they occured in-between our weather recording intervals... More about our weather records

Advertising

Bozeman weather history for previous 24 hours

 ConditionsComfort  
Time TempWeatherWind HumidityBarometerVisibility
6:56 PM
Sep 2
78 °FSunny.14 mph19%29.65 "Hg10 mi
5:56 PM79 °FSunny.N/A24%29.66 "Hg10 mi
4:56 PM77 °FSunny.6 mph32%29.68 "Hg10 mi
3:56 PM77 °FSunny.8 mph29%29.71 "Hg10 mi
2:56 PM76 °FSunny.N/A25%29.75 "Hg10 mi
1:56 PM73 °FSunny.3 mph29%29.78 "Hg10 mi
12:56 PM69 °FSunny.No wind32%29.83 "Hg10 mi
11:56 AM65 °FSunny.No wind39%29.88 "Hg10 mi
10:56 AM63 °FSunny.3 mph45%29.91 "Hg10 mi
9:56 AM58 °FSunny.No wind56%29.94 "Hg10 mi
8:56 AM52 °FSunny.3 mph72%29.96 "Hg10 mi
7:56 AM48 °FSunny.3 mph77%29.95 "Hg10 mi
6:56 AM41 °FClear.6 mph86%29.94 "Hg10 mi
5:56 AM41 °FClear.7 mph86%29.94 "Hg10 mi
4:56 AM42 °FClear.3 mph85%29.94 "Hg10 mi
3:56 AM41 °FClear.8 mph89%29.95 "Hg10 mi
2:56 AM41 °FClear.8 mph89%29.95 "Hg10 mi
1:56 AM45 °FClear.7 mph82%29.95 "Hg10 mi
12:56 AM47 °FClear.5 mph77%29.96 "Hg10 mi
11:56 PM
Sep 1
46 °FClear.3 mph83%29.96 "Hg10 mi
10:56 PM46 °FClear.6 mph86%29.96 "Hg10 mi
9:56 PM50 °FClear.8 mph77%29.94 "Hg10 mi
8:56 PM55 °FSunny.6 mph62%29.94 "Hg10 mi
Weather by CustomWeather, © 2014

See weather overviewHow to use our weather pages